Weather History for Eagle River, WI

Change the Weather History Date:

Monday, January 27, 2014

  Actual Average Record
Temperature  
Mean Temperature -10 °F -  
Max Temperature -4 °F 17 °F 44 °F (2006)
Min Temperature -16 °F -3 °F -25 °F (2005)
Degree Days  
Heating Degree Days 74    
Moisture  
Dew Point -21 °F    
Average Humidity 62    
Maximum Humidity 74    
Minimum Humidity 52    
Precipitation  
Precipitation 0.00 in - - ()
Sea Level Pressure  
Sea Level Pressure 29.96 in    
Wind  
Wind Speed 13 mph (WNW)    
Max Wind Speed 20 mph    
Max Gust Speed 28 mph    
Visibility 8 miles    
Events Snow    
Averages and records for this station are not official NWS values.
T = Trace of Precipitation, MM = Missing Value Source: NWS Daily Summary

Daily Weather History Graph

Daily Weather History Graph

Search for Another Location

Airport:

Trip Planner

Search our weather history database for the weather conditions in past years. The results will help you decide how hot, cold, wet, or windy it might be!

Date:

Astronomy

Jan. 27, 2014 Rise Set
Actual Time 7:24 AM CST 4:55 PM CST
Civil Twilight 6:52 AM CST 5:27 PM CST
Nautical Twilight 6:16 AM CST 6:03 PM CST
Astronomical Twilight 5:41 AM CST 6:39 PM CST
Moon 4:08 AM CST (1/27) 1:38 PM CST (1/27)
Length of Visible Light 10h 35m
Length of Day
9h 30m
Waning Crescent, 14% of the Moon is Illuminated
Jan 27
Waning Crescent
Jan 30
New
Feb 6
First Quarter
Feb 14
Full
Feb 22
Last Quarter

Hourly Weather History & Observations

Time (CST) Temp. Windchill Dew Point Humidity Pressure Visibility Wind Dir Wind Speed Gust Speed Precip Events Conditions
12:15 AM -4.4 °F -23.4 °F -10.8 °F 74% 29.66 in 1.0 mi NNW 12.7 mph - N/A Snow Light Snow
12:35 AM -4.2 °F -24.0 °F -11.7 °F 70% 29.67 in 2.0 mi NW 13.8 mph 20.7 mph N/A Snow Light Snow
12:55 AM -4.5 °F -25.9 °F -12.1 °F 70% 29.68 in 2.0 mi NW 16.1 mph 23.0 mph N/A Snow Light Snow
1:15 AM -4.5 °F -21.9 °F -11.4 °F 72% 29.69 in 1.0 mi NW 10.4 mph 26.5 mph N/A Snow Light Snow
1:35 AM -5.3 °F -25.4 °F -12.5 °F 71% 29.70 in 2.0 mi NW 13.8 mph 21.9 mph N/A Snow Light Snow
1:55 AM -6.2 °F -28.0 °F -14.4 °F 67% 29.72 in 4.0 mi NW 16.1 mph 23.0 mph N/A   Haze
2:15 AM -6.7 °F -29.3 °F -15.3 °F 66% 29.73 in 4.0 mi NW 17.3 mph 26.5 mph N/A   Haze
2:35 AM -6.9 °F -29.6 °F -15.2 °F 67% 29.75 in 4.0 mi WNW 17.3 mph 23.0 mph N/A   Haze
2:55 AM -7.1 °F -26.8 °F -15.5 °F 67% 29.76 in 4.0 mi NW 12.7 mph 20.7 mph N/A   Haze
3:15 AM -7.4 °F -30.9 °F -16.6 °F 64% 29.77 in 3.0 mi NW 18.4 mph 27.6 mph N/A   Haze
3:35 AM -7.8 °F -32.0 °F -17.5 °F 63% 29.78 in 3.0 mi NW 19.6 mph 26.5 mph N/A   Haze
3:55 AM -8.5 °F -28.6 °F -18.2 °F 62% 29.79 in 7.0 mi NW 12.7 mph 21.9 mph N/A   Overcast
4:15 AM -8.5 °F -28.6 °F -18.0 °F 63% 29.79 in 7.0 mi WNW 12.7 mph 20.7 mph N/A   Overcast
4:35 AM -8.9 °F -29.1 °F -17.5 °F 66% 29.80 in 4.0 mi NW 12.7 mph 18.4 mph N/A   Haze
4:55 AM -8.9 °F -27.2 °F -16.1 °F 71% 29.82 in 1.0 mi WNW 10.4 mph 17.3 mph N/A Snow Light Snow
5:15 AM -9.4 °F -22.7 °F -16.8 °F 70% 29.83 in 1.8 mi WNW 5.8 mph 18.4 mph N/A Snow Light Snow
5:35 AM -9.6 °F -31.6 °F -17.3 °F 69% 29.84 in 2.0 mi WNW 15.0 mph - N/A Snow Light Snow
5:55 AM -9.9 °F -31.3 °F -18.6 °F 66% 29.86 in 4.0 mi WNW 13.8 mph 20.7 mph N/A   Haze
6:15 AM -10.8 °F -34.7 °F -20.2 °F 63% 29.86 in 4.0 mi WNW 17.3 mph 23.0 mph N/A   Haze
6:35 AM -11.6 °F -36.9 °F -21.3 °F 62% 29.87 in 5.0 mi WNW 19.6 mph 27.6 mph N/A   Haze
6:55 AM -12.5 °F -32.7 °F -22.0 °F 63% 29.88 in 7.0 mi WNW 11.5 mph 20.7 mph N/A   Scattered Clouds
7:15 AM -13.2 °F -34.6 °F -21.6 °F 66% 29.89 in 3.0 mi WNW 12.7 mph 21.9 mph N/A   Haze
7:35 AM -14.3 °F -36.8 °F -22.9 °F 65% 29.90 in 7.0 mi WNW 13.8 mph 21.9 mph N/A   Scattered Clouds
7:55 AM -14.8 °F -39.1 °F -24.2 °F 63% 29.91 in 7.0 mi WNW 16.1 mph 20.7 mph N/A   Clear
8:15 AM -15.5 °F -36.6 °F -24.9 °F 63% 29.92 in 10.0 mi WNW 11.5 mph 21.9 mph N/A   Clear
8:35 AM -15.7 °F -39.5 °F -25.8 °F 60% 29.94 in 10.0 mi WNW 15.0 mph 19.6 mph N/A   Clear
8:55 AM -15.7 °F -40.2 °F -26.3 °F 59% 29.96 in 7.0 mi West 16.1 mph 23.0 mph N/A   Clear
9:15 AM -15.7 °F -41.7 °F -26.7 °F 58% 29.98 in 7.0 mi WNW 18.4 mph 21.9 mph N/A   Scattered Clouds
9:35 AM -15.3 °F -39.8 °F -26.7 °F 57% 29.99 in 5.0 mi WNW 16.1 mph 26.5 mph N/A   Haze
9:55 AM -15.0 °F -36.8 °F -26.7 °F 56% 30.00 in 7.0 mi WNW 12.7 mph 17.3 mph N/A   Scattered Clouds
10:15 AM -14.8 °F -37.5 °F -26.7 °F 55% 30.00 in 7.0 mi West 13.8 mph 21.9 mph N/A   Mostly Cloudy
10:35 AM -14.3 °F -39.1 °F -26.1 °F 55% 30.01 in 10.0 mi West 17.3 mph - N/A   Scattered Clouds
10:55 AM -14.3 °F -36.8 °F -26.5 °F 54% 30.01 in 7.0 mi WNW 13.8 mph 21.9 mph N/A   Clear
11:15 AM -13.9 °F -38.7 °F -26.3 °F 54% 30.01 in 10.0 mi WNW 17.3 mph - N/A   Clear
11:35 AM -13.0 °F -33.4 °F -26.0 °F 53% 30.01 in 10.0 mi West 11.5 mph - N/A   Clear
11:55 AM -12.3 °F -35.1 °F -25.4 °F 52% 30.01 in 10.0 mi WNW 15.0 mph 19.6 mph N/A   Clear
12:15 PM -11.9 °F -32.0 °F -25.2 °F 52% 30.01 in 10.0 mi West 11.5 mph 19.6 mph N/A   Clear
12:35 PM -11.4 °F -30.4 °F -24.5 °F 52% 30.01 in 7.0 mi WNW 10.4 mph - N/A   Scattered Clouds
12:55 PM -11.0 °F -30.9 °F -24.0 °F 53% 30.01 in 10.0 mi WNW 11.5 mph 19.6 mph N/A   Clear
1:15 PM -10.5 °F -32.0 °F -23.4 °F 53% 30.01 in 10.0 mi WNW 13.8 mph 21.9 mph N/A   Scattered Clouds
1:35 PM -10.3 °F -32.6 °F -23.1 °F 53% 30.02 in 10.0 mi West 15.0 mph 19.6 mph N/A   Scattered Clouds
1:55 PM -10.3 °F -31.8 °F -22.7 °F 54% 30.02 in 7.0 mi West 13.8 mph 18.4 mph N/A   Scattered Clouds
2:15 PM -9.2 °F -28.7 °F -21.5 °F 55% 30.02 in 7.0 mi West 11.5 mph 17.3 mph N/A   Mostly Cloudy
2:35 PM -8.5 °F -28.6 °F -20.9 °F 55% 30.03 in 7.0 mi WNW 12.7 mph 26.5 mph N/A   Scattered Clouds
2:55 PM -8.1 °F -26.3 °F -20.0 °F 56% 30.03 in 10.0 mi West 10.4 mph - N/A   Scattered Clouds
3:15 PM -7.6 °F -28.3 °F -19.5 °F 56% 30.04 in 10.0 mi WNW 13.8 mph 19.6 mph N/A   Scattered Clouds
3:35 PM -7.1 °F -22.8 °F -19.3 °F 55% 30.04 in 10.0 mi West 8.1 mph 19.6 mph N/A   Clear
3:55 PM -7.2 °F -26.2 °F -19.3 °F 56% 30.05 in 10.0 mi WNW 11.5 mph 17.3 mph N/A   Clear
4:15 PM -7.6 °F -26.6 °F -19.1 °F 57% 30.05 in 10.0 mi WNW 11.5 mph 19.6 mph N/A   Clear
4:35 PM -7.6 °F -28.3 °F -18.4 °F 59% 30.06 in 10.0 mi WNW 13.8 mph 21.9 mph N/A   Clear
4:55 PM -8.1 °F -25.3 °F -18.4 °F 61% 30.06 in 10.0 mi West 9.2 mph - N/A   Clear
5:15 PM -8.7 °F -24.7 °F -18.8 °F 61% 30.06 in 10.0 mi West 8.1 mph - N/A   Clear
5:35 PM -10.5 °F -24.0 °F -19.8 °F 63% 30.06 in 10.0 mi West 5.8 mph - N/A   Clear
5:55 PM -10.3 °F -23.8 °F -19.5 °F 64% 30.07 in 10.0 mi West 5.8 mph - N/A   Clear
6:15 PM -10.1 °F -26.5 °F -19.3 °F 64% 30.07 in 10.0 mi West 8.1 mph - N/A   Clear
6:35 PM -10.8 °F -27.4 °F -19.8 °F 64% 30.08 in 10.0 mi West 8.1 mph - N/A   Clear
6:55 PM -10.8 °F -29.7 °F -19.8 °F 64% 30.08 in 10.0 mi West 10.4 mph - N/A   Clear
7:15 PM -11.0 °F -28.8 °F -20.2 °F 64% 30.08 in 10.0 mi West 9.2 mph - N/A   Clear
7:35 PM -11.7 °F -29.7 °F -20.9 °F 64% 30.08 in 10.0 mi West 9.2 mph - N/A   Clear
7:55 PM -12.1 °F -28.9 °F -21.1 °F 64% 30.08 in 10.0 mi West 8.1 mph - N/A   Clear
8:15 PM -12.3 °F -27.7 °F -21.5 °F 64% 30.08 in 10.0 mi West 6.9 mph - N/A   Clear
8:35 PM -12.3 °F -29.1 °F -21.6 °F 63% 30.09 in 10.0 mi West 8.1 mph - N/A   Clear
8:55 PM -13.0 °F -32.4 °F -22.2 °F 64% 30.09 in 10.0 mi West 10.4 mph - N/A   Clear
9:15 PM -13.4 °F -33.8 °F -22.7 °F 63% 30.08 in 10.0 mi West 11.5 mph - N/A   Clear
9:35 PM -13.4 °F -34.8 °F -22.9 °F 62% 30.08 in 10.0 mi West 12.7 mph 20.7 mph N/A   Clear
9:55 PM -13.9 °F -34.5 °F -23.3 °F 63% 30.08 in 10.0 mi West 11.5 mph - N/A   Clear
10:15 PM -13.9 °F -34.5 °F -23.4 °F 62% 30.08 in 10.0 mi West 11.5 mph 17.3 mph N/A   Clear
10:35 PM -14.1 °F -34.7 °F -23.4 °F 63% 30.08 in 10.0 mi West 11.5 mph 16.1 mph N/A   Clear
10:55 PM -14.8 °F -34.6 °F -23.8 °F 64% 30.08 in 10.0 mi West 10.4 mph - N/A   Clear
11:15 PM -15.3 °F -35.3 °F -24.2 °F 64% 30.08 in 10.0 mi West 10.4 mph - N/A   Clear
11:35 PM -15.7 °F -33.3 °F -24.5 °F 64% 30.08 in 10.0 mi West 8.1 mph - N/A   Clear
11:55 PM -16.1 °F -35.0 °F -24.7 °F 65% 30.08 in 10.0 mi West 9.2 mph - N/A   Clear